ECMWFNIL_prec_precacc_021.txt.gz
Total_Precipitation_Accumulation
0.00 0.00 0.00 0.00 0.00 0.00 0.00 0.00 0.00 0.00 0.00 0.00 0.00 0.00 0.00 0.00 0.00 0.00 0.00 0.00 0.00 0.00 0.00 0.00 0.00 0.00 0.00 0.01 0.01 0.03 0.04 0.01 0.04 0.06 0.08 0.07 0.08 0.21 0.15 0.25 0.39 0.38
0.00 0.00 0.01 0.00 0.00 0.00 0.00 0.00 0.00 0.00 0.00 0.00 0.00 0.00 0.00 0.00 0.00 0.00 0.00 0.00 0.00 0.00 0.00 0.00 0.00 0.00 0.00 0.01 0.01 0.01 0.01 0.07 0.06 0.02 0.06 0.09 0.13 0.11 0.18 0.21 0.22 0.29
0.00 0.00 0.00 0.00 0.00 0.00 0.00 0.00 0.00 0.00 0.00 0.00 0.00 0.00 0.00 0.00 0.01 0.01 0.01 0.01 0.01 0.01 0.01 0.00 0.00 0.00 0.00 0.00 0.01 0.01 0.01 0.01 0.05 0.05 0.09 0.06 0.16 0.11 0.11 0.15 0.15 0.13
0.00 0.00 0.00 0.00 0.00 0.00 0.00 0.00 0.00 0.00 0.00 0.00 0.00 0.00 0.00 0.00 0.00 0.00 0.00 0.01 0.01 0.01 0.00 0.01 0.00 0.00 0.00 0.00 0.00 0.01 0.02 0.01 0.01 0.03 0.10 0.09 0.04 0.06 0.10 0.09 0.11 0.15
0.00 0.00 0.00 0.00 0.00 0.00 0.00 0.00 0.00 0.00 0.00 0.00 0.00 0.00 0.01 0.00 0.00 0.00 0.01 0.01 0.01 0.01 0.00 0.00 0.00 0.00 0.00 0.00 0.01 0.01 0.01 0.01 0.01 0.01 0.02 0.08 0.14 0.06 0.04 0.10 0.13 0.10
0.00 0.00 0.00 0.00 0.00 0.00 0.00 0.00 0.00 0.00 0.00 0.00 0.00 0.00 0.00 0.00 0.01 0.01 0.00 0.01 0.00 0.00 0.01 0.00 0.00 0.00 0.00 0.00 0.00 0.01 0.01 0.01 0.02 0.01 0.01 0.02 0.09 0.16 0.12 0.06 0.11 0.09
0.00 0.00 0.00 0.00 0.00 0.00 0.00 0.00 0.00 0.00 0.00 0.00 0.00 0.00 0.00 0.00 0.00 0.00 0.00 0.00 0.00 0.00 0.00 0.00 0.00 0.00 0.00 0.00 0.01 0.01 0.01 0.01 0.01 0.01 0.01 0.01 0.01 0.07 0.17 0.11 0.08 0.05
0.00 0.00 0.00 0.00 0.00 0.00 0.00 0.00 0.00 0.00 0.00 0.00 0.00 0.00 0.00 0.00 0.00 0.00 0.00 0.00 0.00 0.00 0.00 0.00 0.00 0.00 0.00 0.00 0.00 0.01 0.01 0.01 0.01 0.01 0.00 0.01 0.01 0.02 0.03 0.13 0.11 0.08
0.00 0.00 0.00 0.00 0.00 0.00 0.00 0.00 0.00 0.00 0.00 0.01 0.00 0.00 0.00 0.00 0.00 0.00 0.00 0.00 0.00 0.00 0.00 0.00 0.01 0.01 0.01 0.01 0.01 0.01 0.01 0.01 0.00 0.00 0.01 0.01 0.01 0.01 0.01 0.04 0.12 0.12
0.00 0.00 0.00 0.00 0.01 0.00 0.00 0.00 0.00 0.00 0.01 0.01 0.00 0.00 0.00 0.00 0.00 0.00 0.00 0.00 0.00 0.00 0.00 0.00 0.00 0.00 0.01 0.01 0.01 0.01 0.01 0.01 0.01 0.00 0.00 0.00 0.00 0.01 0.02 0.01 0.02 0.06
0.00 0.00 0.00 0.00 0.01 0.01 0.00 0.01 0.01 0.01 0.01 0.01 0.01 0.01 0.00 0.00 0.00 0.00 0.00 0.00 0.00 0.00 0.00 0.00 0.00 0.00 0.00 0.00 0.01 0.01 0.01 0.02 0.01 0.01 0.00 0.00 0.00 0.01 0.01 0.02 0.02 0.03
0.00 0.00 0.00 0.00 0.01 0.01 0.01 0.01 0.01 0.01 0.01 0.01 0.01 0.01 0.00 0.00 0.00 0.00 0.00 0.00 0.00 0.00 0.00 0.00 0.00 0.00 0.00 0.00 0.00 0.01 0.01 0.02 0.02 0.02 0.01 0.00 0.00 0.01 0.01 0.01 0.01 0.02
0.00 0.00 0.00 0.01 0.01 0.01 0.01 0.01 0.01 0.01 0.01 0.01 0.01 0.01 0.01 0.01 0.00 0.00 0.00 0.00 0.00 0.00 0.00 0.00 0.00 0.00 0.00 0.00 0.00 0.00 0.00 0.01 0.02 0.02 0.01 0.01 0.00 0.00 0.01 0.03 0.03 0.02
0.00 0.00 0.01 0.00 0.01 0.01 0.02 0.01 0.01 0.01 0.01 0.01 0.01 0.01 0.01 0.00 0.00 0.00 0.00 0.00 0.00 0.00 0.00 0.00 0.00 0.00 0.00 0.00 0.00 0.00 0.00 0.00 0.01 0.01 0.01 0.02 0.01 0.01 0.01 0.01 0.02 0.01
0.00 0.00 0.01 0.01 0.01 0.02 0.01 0.01 0.01 0.01 0.01 0.00 0.00 0.00 0.00 0.00 0.00 0.00 0.00 0.00 0.00 0.00 0.00 0.00 0.01 0.01 0.00 0.00 0.00 0.00 0.00 0.01 0.01 0.01 0.01 0.01 0.01 0.01 0.01 0.01 0.02 0.02
0.28 0.07 0.01 0.01 0.01 0.01 0.01 0.01 0.00 0.01 0.00 0.00 0.00 0.00 0.00 0.00 0.00 0.00 0.00 0.00 0.00 0.00 0.00 0.00 0.00 0.01 0.00 0.00 0.00 0.00 0.00 0.01 0.01 0.01 0.01 0.01 0.01 0.01 0.02 0.01 0.01 0.01
0.58 0.45 0.20 0.13 0.03 0.02 0.00 0.00 0.00 0.00 0.01 0.00 0.01 0.00 0.00 0.00 0.00 0.00 0.00 0.00 0.00 0.00 0.00 0.01 0.01 0.00 0.00 0.00 0.00 0.00 0.01 0.02 0.02 0.01 0.01 0.01 0.01 0.00 0.01 0.00 0.01 0.02
0.39 0.42 0.28 0.27 0.14 0.06 0.01 0.01 0.00 0.01 0.01 0.01 0.00 0.00 0.00 0.01 0.01 0.01 0.00 0.00 0.00 0.00 0.01 0.00 0.00 0.00 0.00 0.00 0.00 0.00 0.00 0.01 0.02 0.02 0.02 0.02 0.01 0.00 0.00 0.00 0.00 0.01
0.40 0.31 0.28 0.26 0.12 0.04 0.01 0.01 0.01 0.01 0.01 0.01 0.01 0.01 0.01 0.01 0.00 0.01 0.01 0.01 0.01 0.01 0.01 0.00 0.00 0.00 0.00 0.00 0.00 0.00 0.00 0.01 0.02 0.02 0.05 0.04 0.02 0.01 0.00 0.00 0.00 0.00
0.11 0.20 0.16 0.18 0.30 0.21 0.18 0.05 0.01 0.01 0.01 0.01 0.01 0.01 0.01 0.00 0.01 0.01 0.01 0.01 0.01 0.01 0.01 0.00 0.00 0.00 0.00 0.00 0.00 0.00 0.00 0.01 0.02 0.03 0.03 0.05 0.02 0.01 0.01 0.01 0.00 0.00
0.09 0.05 0.17 0.34 0.48 0.45 0.17 0.04 0.00 0.00 0.00 0.00 0.01 0.01 0.01 0.01 0.01 0.01 0.01 0.01 0.01 0.01 0.01 0.01 0.00 0.00 0.00 0.00 0.00 0.00 0.00 0.01 0.02 0.04 0.04 0.03 0.03 0.02 0.02 0.01 0.02 0.02
0.32 0.24 0.10 0.26 0.23 0.14 0.17 0.04 0.00 0.02 0.01 0.01 0.02 0.01 0.01 0.01 0.01 0.01 0.01 0.01 0.01 0.01 0.02 0.02 0.00 0.00 0.00 0.00 0.00 0.00 0.00 0.02 0.02 0.05 0.05 0.04 0.04 0.05 0.02 0.01 0.02 0.05
0.08 0.25 0.27 0.11 0.08 0.04 0.04 0.01 0.01 0.01 0.01 0.01 0.01 0.01 0.01 0.01 0.01 0.01 0.01 0.01 0.01 0.01 0.02 0.01 0.01 0.01 0.02 0.00 0.00 0.00 0.01 0.01 0.04 0.07 0.05 0.05 0.02 0.02 0.02 0.02 0.04 0.01
0.22 0.10 0.22 0.12 0.09 0.05 0.03 0.02 0.01 0.02 0.02 0.02 0.02 0.01 0.01 0.01 0.01 0.01 0.00 0.01 0.01 0.01 0.01 0.02 0.02 0.03 0.02 0.01 0.00 0.00 0.00 0.03 0.07 0.06 0.06 0.07 0.05 0.03 0.02 0.02 0.03 0.01
0.06 0.13 0.04 0.30 0.06 0.06 0.05 0.05 0.03 0.05 0.04 0.02 0.02 0.02 0.01 0.01 0.02 0.01 0.00 0.00 0.01 0.02 0.02 0.04 0.04 0.03 0.02 0.01 0.01 0.00 0.05 0.05 0.05 0.09 0.10 0.06 0.05 0.05 0.08 0.09 0.03 0.05
0.14 0.14 0.18 0.12 0.18 0.02 0.06 0.04 0.05 0.05 0.04 0.04 0.03 0.03 0.02 0.01 0.01 0.02 0.01 0.01 0.01 0.02 0.03 0.04 0.04 0.03 0.03 0.02 0.01 0.02 0.07 0.06 0.03 0.09 0.08 0.07 0.07 0.05 0.08 0.09 0.07 0.07

ECMWFNIL_prec_precacc_024.txt.gz
Total_Precipitation_Accumulation
0.00 0.00 0.00 0.00 0.00 0.00 0.00 0.00 0.00 0.00 0.00 0.00 0.00 0.00 0.00 0.00 0.00 0.00 0.00 0.00 0.00 0.00 0.00 0.00 0.00 0.00 0.00 0.01 0.01 0.03 0.04 0.01 0.04 0.06 0.08 0.07 0.08 0.21 0.15 0.25 0.39 0.38
0.00 0.00 0.01 0.00 0.00 0.00 0.00 0.00 0.00 0.00 0.00 0.00 0.00 0.00 0.00 0.00 0.00 0.00 0.00 0.00 0.00 0.00 0.00 0.00 0.00 0.00 0.00 0.01 0.01 0.01 0.01 0.07 0.06 0.02 0.06 0.09 0.13 0.11 0.18 0.21 0.22 0.29
0.00 0.00 0.00 0.00 0.00 0.00 0.00 0.00 0.00 0.00 0.00 0.00 0.00 0.00 0.00 0.00 0.01 0.01 0.01 0.01 0.01 0.01 0.01 0.00 0.00 0.00 0.00 0.00 0.01 0.01 0.01 0.01 0.05 0.05 0.09 0.06 0.16 0.11 0.11 0.15 0.15 0.13
0.00 0.00 0.00 0.00 0.00 0.00 0.00 0.00 0.00 0.00 0.00 0.00 0.00 0.00 0.00 0.00 0.00 0.00 0.00 0.01 0.01 0.01 0.00 0.01 0.00 0.00 0.00 0.00 0.00 0.01 0.02 0.01 0.01 0.03 0.10 0.09 0.04 0.06 0.10 0.09 0.11 0.15
0.00 0.00 0.00 0.00 0.00 0.00 0.00 0.00 0.00 0.00 0.00 0.00 0.00 0.00 0.01 0.00 0.00 0.00 0.01 0.01 0.01 0.01 0.00 0.00 0.00 0.00 0.00 0.00 0.01 0.01 0.01 0.01 0.01 0.01 0.02 0.08 0.14 0.06 0.04 0.10 0.13 0.10
0.00 0.00 0.00 0.00 0.00 0.00 0.00 0.00 0.00 0.00 0.00 0.00 0.00 0.00 0.00 0.00 0.01 0.01 0.00 0.01 0.00 0.00 0.01 0.00 0.00 0.00 0.00 0.00 0.00 0.01 0.01 0.01 0.02 0.01 0.01 0.02 0.09 0.16 0.12 0.06 0.11 0.09
0.00 0.00 0.00 0.00 0.00 0.00 0.00 0.00 0.00 0.00 0.00 0.00 0.00 0.00 0.00 0.00 0.00 0.00 0.00 0.00 0.00 0.00 0.00 0.00 0.00 0.00 0.00 0.00 0.01 0.01 0.01 0.01 0.01 0.01 0.01 0.01 0.01 0.07 0.17 0.11 0.08 0.05
0.00 0.00 0.00 0.00 0.00 0.00 0.00 0.00 0.00 0.00 0.00 0.00 0.00 0.00 0.00 0.00 0.00 0.00 0.00 0.00 0.00 0.00 0.00 0.00 0.00 0.00 0.00 0.00 0.00 0.01 0.01 0.01 0.01 0.01 0.00 0.01 0.01 0.02 0.03 0.13 0.11 0.08
0.00 0.00 0.00 0.00 0.00 0.00 0.00 0.00 0.00 0.00 0.00 0.01 0.00 0.00 0.00 0.00 0.00 0.00 0.00 0.00 0.00 0.00 0.00 0.00 0.01 0.01 0.01 0.01 0.01 0.01 0.01 0.01 0.00 0.00 0.01 0.01 0.01 0.01 0.01 0.04 0.12 0.12
0.00 0.00 0.00 0.00 0.01 0.00 0.00 0.00 0.00 0.00 0.01 0.01 0.00 0.00 0.00 0.00 0.00 0.00 0.00 0.00 0.00 0.00 0.00 0.00 0.00 0.00 0.01 0.01 0.01 0.01 0.01 0.01 0.01 0.00 0.00 0.00 0.00 0.01 0.02 0.01 0.02 0.06
0.00 0.00 0.00 0.00 0.01 0.01 0.00 0.01 0.01 0.01 0.01 0.01 0.01 0.01 0.00 0.00 0.00 0.00 0.00 0.00 0.00 0.00 0.00 0.00 0.00 0.00 0.00 0.00 0.01 0.01 0.01 0.02 0.01 0.01 0.00 0.00 0.00 0.01 0.01 0.02 0.02 0.03
0.00 0.00 0.00 0.00 0.01 0.01 0.01 0.01 0.01 0.01 0.01 0.01 0.01 0.01 0.00 0.00 0.00 0.00 0.00 0.00 0.00 0.00 0.00 0.00 0.00 0.00 0.00 0.00 0.00 0.01 0.01 0.02 0.02 0.02 0.01 0.00 0.00 0.01 0.01 0.01 0.01 0.02
0.00 0.00 0.00 0.01 0.01 0.01 0.01 0.01 0.01 0.01 0.01 0.01 0.01 0.01 0.01 0.01 0.00 0.00 0.00 0.00 0.00 0.00 0.00 0.00 0.00 0.00 0.00 0.00 0.00 0.00 0.00 0.01 0.02 0.02 0.01 0.01 0.00 0.00 0.01 0.03 0.03 0.02
0.00 0.00 0.01 0.00 0.01 0.01 0.06 0.06 0.02 0.01 0.01 0.01 0.01 0.01 0.01 0.00 0.00 0.00 0.00 0.00 0.00 0.00 0.00 0.00 0.00 0.00 0.00 0.00 0.00 0.00 0.00 0.00 0.01 0.01 0.01 0.02 0.01 0.01 0.01 0.01 0.02 0.01
0.00 0.01 0.02 0.02 0.01 0.02 0.01 0.29 0.61 0.27 0.24 0.19 0.01 0.00 0.00 0.00 0.00 0.00 0.00 0.00 0.00 0.00 0.00 0.00 0.01 0.01 0.00 0.00 0.00 0.00 0.00 0.01 0.01 0.01 0.01 0.01 0.01 0.01 0.01 0.01 0.02 0.02
0.32 0.27 0.51 0.63 0.22 0.32 0.23 0.28 0.17 0.29 0.33 0.19 0.10 0.02 0.00 0.00 0.00 0.00 0.00 0.00 0.00 0.00 0.00 0.00 0.00 0.01 0.00 0.00 0.00 0.00 0.00 0.01 0.01 0.01 0.01 0.01 0.01 0.01 0.02 0.01 0.01 0.01
0.59 0.53 0.28 0.33 0.11 0.35 0.28 0.41 0.46 0.26 0.16 0.12 0.12 0.01 0.03 0.01 0.01 0.00 0.00 0.00 0.00 0.00 0.00 0.01 0.01 0.00 0.00 0.00 0.00 0.00 0.01 0.02 0.02 0.01 0.01 0.01 0.01 0.00 0.01 0.00 0.01 0.02
0.39 0.42 0.28 0.33 0.26 0.19 0.25 0.17 0.14 0.12 0.10 0.12 0.10 0.10 0.05 0.04 0.04 0.02 0.01 0.00 0.00 0.00 0.01 0.00 0.00 0.00 0.00 0.00 0.00 0.00 0.00 0.01 0.02 0.02 0.02 0.02 0.01 0.00 0.00 0.00 0.00 0.01
0.40 0.31 0.28 0.26 0.14 0.15 0.06 0.53 0.52 0.23 0.23 0.11 0.06 0.09 0.04 0.07 0.03 0.01 0.01 0.01 0.01 0.01 0.01 0.00 0.00 0.00 0.00 0.00 0.00 0.00 0.00 0.01 0.02 0.02 0.05 0.04 0.02 0.01 0.00 0.00 0.00 0.00
0.11 0.20 0.16 0.18 0.31 0.30 0.31 0.24 0.15 0.14 0.12 0.05 0.04 0.06 0.04 0.03 0.03 0.02 0.01 0.01 0.01 0.01 0.01 0.00 0.00 0.00 0.00 0.00 0.00 0.00 0.00 0.01 0.02 0.03 0.03 0.05 0.02 0.01 0.01 0.01 0.00 0.00
0.09 0.05 0.17 0.34 0.48 0.51 0.45 0.19 0.11 0.10 0.12 0.09 0.06 0.11 0.08 0.03 0.06 0.03 0.02 0.01 0.01 0.01 0.01 0.01 0.00 0.00 0.00 0.00 0.00 0.00 0.00 0.01 0.02 0.04 0.04 0.03 0.03 0.02 0.02 0.01 0.02 0.02
0.32 0.24 0.10 0.26 0.23 0.14 0.20 0.21 0.12 0.04 0.22 0.13 0.27 0.12 0.14 0.19 0.09 0.06 0.01 0.01 0.01 0.01 0.02 0.02 0.00 0.00 0.00 0.00 0.00 0.00 0.00 0.02 0.02 0.05 0.05 0.04 0.04 0.05 0.02 0.01 0.02 0.05
0.08 0.25 0.27 0.11 0.08 0.04 0.04 0.01 0.02 0.01 0.02 0.02 0.02 0.01 0.01 0.01 0.01 0.01 0.01 0.01 0.01 0.01 0.02 0.01 0.01 0.01 0.02 0.00 0.00 0.00 0.01 0.01 0.04 0.07 0.05 0.05 0.02 0.02 0.02 0.02 0.04 0.01
0.22 0.11 0.23 0.12 0.11 0.06 0.03 0.04 0.02 0.04 0.04 0.02 0.02 0.01 0.01 0.01 0.01 0.01 0.00 0.01 0.01 0.01 0.01 0.02 0.02 0.03 0.02 0.01 0.00 0.00 0.00 0.03 0.07 0.06 0.06 0.07 0.05 0.03 0.02 0.02 0.03 0.01
0.06 0.17 0.19 0.42 0.36 0.21 0.09 0.08 0.04 0.07 0.05 0.02 0.02 0.02 0.01 0.01 0.02 0.01 0.00 0.00 0.01 0.02 0.02 0.04 0.04 0.03 0.02 0.01 0.01 0.00 0.05 0.05 0.05 0.09 0.10 0.06 0.05 0.05 0.08 0.09 0.03 0.05
0.14 0.14 0.18 0.12 0.22 0.08 0.21 0.38 0.41 0.17 0.07 0.04 0.05 0.03 0.02 0.01 0.01 0.02 0.01 0.01 0.01 0.02 0.03 0.04 0.04 0.03 0.03 0.02 0.01 0.02 0.07 0.06 0.03 0.09 0.08 0.07 0.07 0.05 0.08 0.09 0.07 0.07

ECMWFNIL_prec_precacc_027.txt.gz
Total_Precipitation_Accumulation
0.00 0.00 0.00 0.00 0.00 0.00 0.00 0.00 0.00 0.00 0.00 0.00 0.00 0.00 0.00 0.00 0.00 0.00 0.00 0.00 0.00 0.00 0.00 0.00 0.00 0.00 0.00 0.01 0.01 0.03 0.04 0.01 0.04 0.06 0.08 0.07 0.08 0.21 0.15 0.25 0.39 0.38
0.00 0.00 0.01 0.00 0.00 0.00 0.00 0.00 0.00 0.00 0.00 0.00 0.00 0.00 0.00 0.00 0.00 0.00 0.00 0.00 0.00 0.00 0.00 0.00 0.00 0.00 0.00 0.01 0.01 0.01 0.01 0.07 0.06 0.02 0.06 0.09 0.13 0.11 0.18 0.21 0.22 0.29
0.00 0.00 0.00 0.00 0.00 0.00 0.00 0.00 0.00 0.00 0.00 0.00 0.00 0.00 0.00 0.00 0.01 0.01 0.01 0.01 0.01 0.01 0.01 0.00 0.00 0.00 0.00 0.00 0.01 0.01 0.01 0.01 0.05 0.05 0.09 0.06 0.16 0.11 0.11 0.15 0.15 0.13
0.00 0.00 0.00 0.00 0.00 0.00 0.00 0.00 0.00 0.00 0.00 0.00 0.00 0.00 0.00 0.00 0.00 0.00 0.00 0.01 0.01 0.01 0.00 0.01 0.00 0.00 0.00 0.00 0.00 0.01 0.02 0.01 0.01 0.03 0.10 0.09 0.04 0.06 0.10 0.09 0.11 0.15
0.00 0.00 0.00 0.00 0.00 0.00 0.00 0.00 0.00 0.00 0.00 0.00 0.00 0.00 0.01 0.00 0.00 0.01 0.01 0.01 0.01 0.01 0.00 0.00 0.00 0.00 0.00 0.00 0.01 0.01 0.01 0.01 0.01 0.01 0.02 0.08 0.14 0.06 0.04 0.10 0.13 0.10
0.00 0.00 0.00 0.00 0.00 0.00 0.00 0.00 0.00 0.00 0.00 0.00 0.00 0.00 0.00 0.00 0.01 0.01 0.00 0.01 0.00 0.00 0.01 0.01 0.00 0.00 0.00 0.00 0.00 0.01 0.01 0.01 0.02 0.01 0.01 0.02 0.09 0.16 0.12 0.06 0.11 0.09
0.00 0.00 0.00 0.00 0.00 0.00 0.00 0.00 0.00 0.00 0.00 0.00 0.00 0.00 0.00 0.00 0.00 0.00 0.00 0.00 0.00 0.00 0.00 0.00 0.00 0.00 0.00 0.00 0.01 0.01 0.01 0.01 0.01 0.01 0.01 0.01 0.01 0.07 0.17 0.11 0.08 0.05
0.00 0.00 0.00 0.00 0.00 0.00 0.00 0.00 0.00 0.00 0.00 0.00 0.00 0.00 0.00 0.00 0.00 0.00 0.00 0.00 0.00 0.00 0.00 0.00 0.00 0.00 0.00 0.00 0.00 0.01 0.01 0.01 0.01 0.01 0.00 0.01 0.01 0.02 0.03 0.13 0.11 0.08
0.00 0.00 0.00 0.00 0.00 0.00 0.00 0.00 0.00 0.00 0.00 0.01 0.00 0.00 0.00 0.00 0.00 0.00 0.00 0.00 0.00 0.00 0.00 0.00 0.01 0.01 0.01 0.01 0.01 0.01 0.01 0.01 0.00 0.00 0.01 0.01 0.01 0.01 0.01 0.04 0.12 0.12
0.00 0.00 0.00 0.00 0.01 0.00 0.00 0.00 0.00 0.00 0.01 0.01 0.00 0.00 0.00 0.00 0.00 0.00 0.00 0.00 0.00 0.00 0.00 0.00 0.00 0.00 0.01 0.01 0.01 0.01 0.01 0.01 0.01 0.00 0.00 0.00 0.00 0.01 0.02 0.01 0.02 0.06
0.00 0.00 0.00 0.00 0.01 0.01 0.00 0.01 0.01 0.01 0.01 0.01 0.01 0.01 0.00 0.00 0.00 0.00 0.00 0.00 0.00 0.00 0.00 0.00 0.00 0.00 0.00 0.00 0.01 0.01 0.01 0.02 0.01 0.01 0.00 0.00 0.00 0.01 0.01 0.02 0.02 0.03
0.00 0.00 0.00 0.00 0.01 0.01 0.01 0.01 0.01 0.01 0.01 0.01 0.01 0.01 0.00 0.00 0.00 0.00 0.00 0.00 0.00 0.00 0.00 0.00 0.00 0.00 0.00 0.00 0.00 0.01 0.01 0.02 0.02 0.02 0.01 0.00 0.00 0.01 0.01 0.01 0.01 0.02
0.05 0.06 0.02 0.01 0.01 0.01 0.01 0.01 0.01 0.02 0.02 0.14 0.50 0.45 0.34 0.16 0.05 0.02 0.00 0.00 0.00 0.00 0.00 0.00 0.00 0.00 0.00 0.00 0.00 0.00 0.00 0.01 0.02 0.02 0.01 0.01 0.00 0.00 0.01 0.03 0.03 0.02
0.00 0.06 0.05 0.03 0.01 0.01 0.06 0.06 0.02 0.12 0.39 0.74 0.46 0.27 0.23 0.20 0.04 0.01 0.00 0.00 0.00 0.00 0.00 0.00 0.00 0.00 0.00 0.00 0.00 0.00 0.00 0.00 0.01 0.01 0.01 0.02 0.01 0.01 0.01 0.01 0.02 0.01
0.01 0.01 0.02 0.02 0.01 0.03 0.01 0.29 0.61 0.44 0.35 0.37 0.28 0.25 0.13 0.08 0.04 0.02 0.02 0.01 0.01 0.00 0.00 0.00 0.01 0.01 0.01 0.00 0.00 0.00 0.00 0.01 0.01 0.01 0.01 0.01 0.01 0.01 0.01 0.01 0.02 0.02
0.32 0.27 0.51 0.63 0.22 0.32 0.23 0.29 0.17 0.29 0.33 0.24 0.18 0.18 0.07 0.03 0.04 0.03 0.03 0.02 0.01 0.01 0.00 0.01 0.00 0.01 0.00 0.00 0.00 0.00 0.00 0.01 0.01 0.01 0.01 0.01 0.01 0.01 0.02 0.01 0.01 0.01
0.59 0.53 0.28 0.33 0.11 0.36 0.28 0.41 0.46 0.27 0.16 0.12 0.13 0.03 0.11 0.08 0.05 0.04 0.03 0.03 0.02 0.01 0.01 0.01 0.01 0.00 0.00 0.00 0.00 0.00 0.01 0.02 0.02 0.01 0.01 0.01 0.01 0.00 0.01 0.00 0.01 0.02
0.39 0.42 0.28 0.33 0.26 0.19 0.25 0.17 0.14 0.12 0.11 0.12 0.11 0.15 0.06 0.06 0.07 0.05 0.03 0.02 0.02 0.01 0.01 0.01 0.01 0.00 0.00 0.00 0.00 0.00 0.00 0.01 0.02 0.02 0.02 0.02 0.01 0.00 0.00 0.00 0.00 0.01
0.40 0.31 0.28 0.26 0.14 0.15 0.06 0.53 0.52 0.23 0.23 0.11 0.06 0.09 0.05 0.08 0.05 0.02 0.02 0.02 0.02 0.01 0.01 0.01 0.00 0.00 0.00 0.00 0.00 0.00 0.00 0.01 0.02 0.02 0.05 0.04 0.02 0.01 0.00 0.00 0.00 0.00
0.11 0.20 0.16 0.18 0.31 0.30 0.31 0.24 0.15 0.14 0.12 0.05 0.04 0.06 0.05 0.04 0.04 0.03 0.03 0.07 0.04 0.05 0.02 0.01 0.01 0.01 0.00 0.00 0.00 0.00 0.00 0.01 0.02 0.03 0.03 0.05 0.02 0.01 0.01 0.01 0.00 0.00
0.09 0.05 0.17 0.34 0.48 0.51 0.45 0.19 0.11 0.10 0.12 0.09 0.06 0.11 0.08 0.03 0.06 0.03 0.03 0.03 0.03 0.03 0.04 0.03 0.00 0.00 0.00 0.00 0.00 0.00 0.00 0.01 0.02 0.04 0.04 0.03 0.03 0.02 0.02 0.01 0.02 0.02
0.32 0.24 0.10 0.26 0.23 0.14 0.20 0.21 0.12 0.04 0.22 0.13 0.27 0.12 0.14 0.20 0.24 0.13 0.13 0.16 0.07 0.11 0.08 0.08 0.05 0.02 0.01 0.00 0.00 0.00 0.00 0.02 0.02 0.05 0.05 0.04 0.04 0.05 0.02 0.01 0.02 0.05
0.08 0.25 0.27 0.11 0.08 0.04 0.04 0.01 0.02 0.01 0.02 0.02 0.02 0.01 0.01 0.01 0.01 0.01 0.01 0.01 0.02 0.01 0.02 0.02 0.02 0.01 0.02 0.00 0.00 0.00 0.01 0.01 0.04 0.07 0.05 0.05 0.02 0.02 0.02 0.02 0.04 0.01
0.22 0.11 0.23 0.12 0.11 0.06 0.03 0.04 0.02 0.05 0.04 0.02 0.02 0.01 0.02 0.03 0.05 0.03 0.01 0.02 0.02 0.01 0.02 0.02 0.02 0.03 0.02 0.01 0.00 0.00 0.00 0.03 0.07 0.06 0.06 0.07 0.05 0.03 0.02 0.02 0.03 0.01
0.06 0.17 0.19 0.42 0.36 0.21 0.09 0.08 0.04 0.07 0.06 0.02 0.03 0.04 0.06 0.06 0.07 0.08 0.01 0.05 0.01 0.02 0.02 0.04 0.04 0.03 0.02 0.01 0.01 0.00 0.05 0.05 0.05 0.09 0.10 0.06 0.05 0.05 0.08 0.09 0.03 0.05
0.14 0.14 0.18 0.12 0.22 0.08 0.21 0.38 0.43 0.26 0.21 0.18 0.12 0.12 0.07 0.02 0.01 0.02 0.01 0.01 0.01 0.02 0.03 0.04 0.04 0.03 0.03 0.02 0.01 0.02 0.07 0.06 0.03 0.09 0.08 0.07 0.07 0.05 0.08 0.09 0.07 0.07

ECMWFNIL_prec_precacc_030.txt.gz
Total_Precipitation_Accumulation
0.00 0.00 0.00 0.00 0.00 0.00 0.00 0.00 0.00 0.00 0.00 0.00 0.00 0.00 0.00 0.00 0.00 0.00 0.00 0.00 0.00 0.00 0.00 0.00 0.00 0.00 0.00 0.01 0.01 0.03 0.04 0.01 0.04 0.06 0.08 0.07 0.08 0.21 0.15 0.25 0.39 0.38
0.00 0.00 0.01 0.00 0.00 0.00 0.00 0.00 0.00 0.00 0.00 0.00 0.00 0.00 0.00 0.00 0.00 0.00 0.00 0.00 0.00 0.00 0.00 0.00 0.00 0.00 0.00 0.01 0.01 0.01 0.01 0.07 0.06 0.02 0.06 0.09 0.13 0.11 0.18 0.21 0.22 0.29
0.00 0.00 0.00 0.00 0.00 0.00 0.00 0.00 0.00 0.00 0.00 0.00 0.00 0.00 0.00 0.00 0.01 0.01 0.01 0.01 0.01 0.01 0.01 0.00 0.00 0.00 0.00 0.00 0.01 0.01 0.01 0.01 0.05 0.05 0.09 0.06 0.16 0.11 0.11 0.15 0.15 0.13
0.00 0.00 0.00 0.00 0.00 0.00 0.00 0.00 0.00 0.00 0.00 0.00 0.00 0.00 0.00 0.00 0.00 0.00 0.00 0.01 0.01 0.01 0.00 0.01 0.00 0.00 0.00 0.00 0.00 0.01 0.02 0.01 0.01 0.03 0.10 0.09 0.04 0.06 0.10 0.09 0.11 0.15
0.00 0.00 0.00 0.00 0.00 0.00 0.00 0.00 0.00 0.00 0.00 0.00 0.00 0.00 0.01 0.00 0.00 0.01 0.01 0.01 0.01 0.01 0.00 0.00 0.00 0.00 0.00 0.00 0.01 0.01 0.01 0.01 0.01 0.01 0.02 0.08 0.14 0.06 0.04 0.10 0.13 0.10
0.00 0.00 0.00 0.00 0.00 0.00 0.00 0.00 0.00 0.00 0.00 0.00 0.00 0.00 0.00 0.00 0.01 0.01 0.00 0.01 0.00 0.00 0.01 0.01 0.00 0.00 0.00 0.00 0.00 0.01 0.01 0.01 0.02 0.01 0.01 0.02 0.09 0.16 0.12 0.06 0.11 0.09
0.00 0.00 0.00 0.00 0.00 0.00 0.00 0.00 0.00 0.00 0.00 0.00 0.00 0.00 0.00 0.00 0.00 0.00 0.00 0.00 0.00 0.00 0.00 0.00 0.00 0.00 0.00 0.00 0.01 0.01 0.01 0.01 0.01 0.01 0.01 0.01 0.01 0.07 0.17 0.11 0.08 0.05
0.00 0.00 0.00 0.00 0.00 0.00 0.00 0.00 0.00 0.00 0.00 0.00 0.00 0.00 0.00 0.00 0.00 0.00 0.00 0.00 0.00 0.00 0.00 0.00 0.00 0.00 0.00 0.00 0.00 0.01 0.01 0.01 0.01 0.01 0.00 0.01 0.01 0.02 0.03 0.13 0.11 0.08
0.00 0.00 0.00 0.00 0.00 0.00 0.00 0.00 0.00 0.00 0.00 0.01 0.00 0.00 0.00 0.00 0.00 0.00 0.00 0.00 0.00 0.00 0.00 0.00 0.01 0.01 0.01 0.01 0.01 0.01 0.01 0.01 0.00 0.00 0.01 0.01 0.01 0.01 0.01 0.04 0.12 0.12
0.00 0.00 0.00 0.00 0.01 0.00 0.00 0.00 0.00 0.00 0.01 0.01 0.00 0.00 0.00 0.00 0.00 0.00 0.00 0.00 0.00 0.00 0.00 0.00 0.00 0.00 0.01 0.01 0.01 0.01 0.01 0.01 0.01 0.00 0.00 0.00 0.00 0.01 0.02 0.01 0.02 0.06
0.03 0.01 0.00 0.01 0.01 0.01 0.00 0.01 0.01 0.01 0.01 0.01 0.01 0.01 0.02 0.01 0.00 0.00 0.00 0.00 0.00 0.00 0.00 0.00 0.00 0.00 0.00 0.00 0.01 0.01 0.01 0.02 0.01 0.01 0.00 0.00 0.00 0.01 0.01 0.02 0.02 0.03
0.01 0.00 0.01 0.01 0.01 0.02 0.01 0.01 0.01 0.01 0.01 0.02 0.02 0.04 0.05 0.03 0.03 0.02 0.00 0.00 0.00 0.00 0.00 0.00 0.00 0.00 0.00 0.00 0.00 0.01 0.01 0.02 0.02 0.02 0.01 0.00 0.00 0.01 0.01 0.01 0.01 0.02
0.05 0.07 0.07 0.05 0.01 0.02 0.02 0.02 0.02 0.02 0.02 0.14 0.55 0.51 0.36 0.32 0.32 0.05 0.02 0.01 0.00 0.00 0.00 0.00 0.00 0.00 0.00 0.00 0.00 0.00 0.00 0.01 0.02 0.02 0.01 0.01 0.00 0.00 0.01 0.03 0.03 0.02
0.00 0.06 0.05 0.08 0.05 0.03 0.10 0.12 0.06 0.13 0.39 0.74 0.46 0.28 0.37 0.40 0.10 0.04 0.03 0.02 0.01 0.01 0.00 0.00 0.00 0.00 0.00 0.00 0.00 0.00 0.00 0.00 0.01 0.01 0.01 0.02 0.01 0.01 0.01 0.01 0.02 0.01
0.01 0.01 0.02 0.02 0.02 0.06 0.02 0.29 0.62 0.44 0.35 0.37 0.28 0.25 0.15 0.20 0.06 0.03 0.03 0.02 0.02 0.01 0.00 0.00 0.01 0.01 0.01 0.00 0.00 0.00 0.00 0.01 0.01 0.01 0.01 0.01 0.01 0.01 0.01 0.01 0.02 0.02
0.32 0.27 0.51 0.63 0.22 0.32 0.23 0.29 0.17 0.29 0.34 0.24 0.18 0.18 0.08 0.03 0.15 0.06 0.03 0.02 0.01 0.01 0.00 0.01 0.00 0.01 0.00 0.00 0.00 0.00 0.00 0.01 0.01 0.01 0.01 0.01 0.01 0.01 0.02 0.01 0.01 0.01
0.59 0.53 0.28 0.33 0.11 0.36 0.28 0.42 0.46 0.28 0.17 0.12 0.14 0.04 0.11 0.11 0.07 0.09 0.08 0.23 0.08 0.01 0.01 0.01 0.01 0.00 0.00 0.00 0.00 0.00 0.01 0.02 0.02 0.01 0.01 0.01 0.01 0.00 0.01 0.00 0.01 0.02
0.39 0.42 0.28 0.33 0.26 0.19 0.25 0.17 0.14 0.12 0.11 0.12 0.12 0.22 0.11 0.10 0.19 0.17 0.16 0.17 0.10 0.04 0.04 0.04 0.01 0.01 0.00 0.00 0.00 0.00 0.00 0.01 0.02 0.02 0.02 0.02 0.01 0.00 0.00 0.00 0.00 0.01
0.40 0.31 0.28 0.26 0.14 0.15 0.06 0.53 0.52 0.23 0.23 0.11 0.06 0.09 0.05 0.08 0.05 0.02 0.02 0.02 0.02 0.01 0.01 0.01 0.00 0.00 0.00 0.00 0.00 0.00 0.00 0.01 0.02 0.02 0.05 0.04 0.02 0.01 0.00 0.00 0.00 0.00
0.11 0.20 0.16 0.18 0.31 0.30 0.31 0.24 0.15 0.14 0.12 0.05 0.04 0.06 0.05 0.04 0.04 0.03 0.03 0.07 0.04 0.05 0.02 0.01 0.01 0.01 0.00 0.00 0.00 0.00 0.00 0.01 0.02 0.03 0.03 0.05 0.02 0.01 0.01 0.01 0.00 0.00
0.09 0.05 0.17 0.34 0.48 0.51 0.45 0.19 0.11 0.10 0.12 0.09 0.06 0.11 0.08 0.03 0.06 0.03 0.03 0.03 0.03 0.03 0.04 0.03 0.00 0.00 0.00 0.00 0.00 0.00 0.00 0.01 0.02 0.04 0.04 0.03 0.03 0.02 0.02 0.01 0.02 0.02
0.32 0.24 0.10 0.26 0.23 0.14 0.20 0.21 0.12 0.04 0.22 0.13 0.28 0.12 0.14 0.20 0.24 0.13 0.13 0.16 0.07 0.12 0.08 0.08 0.05 0.02 0.01 0.00 0.00 0.00 0.00 0.02 0.02 0.05 0.05 0.04 0.04 0.05 0.02 0.01 0.02 0.05
0.08 0.25 0.27 0.11 0.08 0.04 0.04 0.01 0.02 0.01 0.02 0.02 0.02 0.01 0.01 0.01 0.01 0.01 0.01 0.01 0.02 0.01 0.03 0.02 0.02 0.01 0.02 0.00 0.00 0.00 0.01 0.01 0.04 0.07 0.05 0.05 0.02 0.02 0.02 0.02 0.04 0.01
0.22 0.11 0.23 0.12 0.11 0.06 0.03 0.04 0.02 0.05 0.04 0.02 0.02 0.02 0.02 0.03 0.05 0.03 0.01 0.02 0.03 0.03 0.02 0.02 0.02 0.03 0.02 0.01 0.00 0.00 0.00 0.03 0.07 0.06 0.06 0.07 0.05 0.03 0.02 0.02 0.03 0.01
0.06 0.17 0.19 0.42 0.36 0.21 0.09 0.08 0.04 0.07 0.06 0.03 0.04 0.04 0.06 0.06 0.07 0.10 0.02 0.06 0.02 0.02 0.02 0.04 0.04 0.03 0.02 0.01 0.01 0.00 0.05 0.05 0.05 0.09 0.10 0.06 0.05 0.05 0.08 0.09 0.03 0.05
0.14 0.14 0.18 0.12 0.22 0.08 0.21 0.38 0.43 0.26 0.21 0.18 0.12 0.12 0.09 0.06 0.05 0.03 0.02 0.01 0.01 0.02 0.03 0.04 0.04 0.03 0.03 0.02 0.01 0.02 0.07 0.06 0.03 0.09 0.08 0.07 0.07 0.05 0.08 0.09 0.07 0.07

ECMWFNIL_prec_precacc_033.txt.gz
Total_Precipitation_Accumulation
0.00 0.00 0.00 0.00 0.00 0.00 0.00 0.00 0.00 0.00 0.00 0.00 0.00 0.00 0.00 0.00 0.00 0.00 0.00 0.00 0.00 0.00 0.00 0.00 0.00 0.00 0.00 0.01 0.01 0.03 0.04 0.01 0.04 0.06 0.08 0.07 0.08 0.21 0.15 0.25 0.39 0.38
0.00 0.00 0.01 0.00 0.00 0.00 0.00 0.00 0.00 0.00 0.00 0.00 0.00 0.00 0.00 0.00 0.00 0.00 0.00 0.00 0.00 0.00 0.00 0.00 0.00 0.00 0.00 0.01 0.01 0.01 0.01 0.07 0.06 0.02 0.06 0.09 0.13 0.11 0.18 0.21 0.22 0.29
0.00 0.00 0.00 0.00 0.00 0.00 0.00 0.00 0.00 0.00 0.00 0.00 0.00 0.00 0.00 0.00 0.01 0.01 0.01 0.01 0.01 0.01 0.01 0.00 0.00 0.00 0.00 0.00 0.01 0.01 0.01 0.01 0.05 0.05 0.09 0.06 0.16 0.11 0.11 0.15 0.15 0.13
0.00 0.00 0.00 0.00 0.00 0.00 0.00 0.00 0.00 0.00 0.00 0.00 0.00 0.00 0.00 0.00 0.00 0.00 0.00 0.01 0.01 0.01 0.00 0.01 0.00 0.00 0.00 0.00 0.00 0.01 0.02 0.01 0.01 0.03 0.10 0.09 0.04 0.06 0.10 0.09 0.11 0.15
0.00 0.00 0.00 0.00 0.00 0.00 0.00 0.00 0.00 0.00 0.00 0.00 0.00 0.00 0.01 0.00 0.00 0.01 0.01 0.01 0.01 0.01 0.00 0.00 0.00 0.00 0.00 0.00 0.01 0.01 0.01 0.01 0.01 0.01 0.02 0.08 0.14 0.06 0.04 0.10 0.13 0.10
0.00 0.00 0.00 0.00 0.00 0.00 0.00 0.00 0.00 0.00 0.00 0.00 0.00 0.00 0.00 0.00 0.01 0.01 0.00 0.01 0.00 0.00 0.01 0.01 0.00 0.00 0.00 0.00 0.00 0.01 0.01 0.01 0.02 0.01 0.01 0.02 0.09 0.16 0.12 0.06 0.11 0.09
0.00 0.02 0.00 0.00 0.00 0.00 0.00 0.01 0.00 0.00 0.00 0.00 0.00 0.00 0.00 0.00 0.00 0.00 0.00 0.00 0.00 0.00 0.00 0.00 0.00 0.00 0.00 0.00 0.01 0.01 0.01 0.01 0.01 0.01 0.01 0.01 0.01 0.07 0.17 0.11 0.08 0.05
0.00 0.00 0.00 0.00 0.00 0.00 0.00 0.00 0.00 0.00 0.00 0.00 0.00 0.00 0.00 0.00 0.00 0.00 0.00 0.00 0.00 0.00 0.00 0.00 0.00 0.00 0.00 0.00 0.00 0.01 0.01 0.01 0.01 0.01 0.00 0.01 0.01 0.02 0.03 0.13 0.11 0.08
0.01 0.01 0.01 0.01 0.00 0.00 0.00 0.00 0.00 0.00 0.00 0.01 0.00 0.00 0.00 0.00 0.00 0.00 0.00 0.00 0.00 0.00 0.00 0.00 0.01 0.01 0.01 0.01 0.01 0.01 0.01 0.01 0.00 0.00 0.01 0.01 0.01 0.01 0.01 0.04 0.12 0.12
0.01 0.02 0.02 0.02 0.02 0.01 0.01 0.01 0.03 0.02 0.01 0.01 0.00 0.00 0.00 0.00 0.00 0.00 0.00 0.00 0.00 0.00 0.00 0.00 0.00 0.00 0.01 0.01 0.01 0.01 0.01 0.01 0.01 0.00 0.00 0.00 0.00 0.01 0.02 0.01 0.02 0.06
0.12 0.09 0.05 0.08 0.10 0.10 0.14 0.08 0.04 0.12 0.05 0.01 0.01 0.01 0.02 0.01 0.00 0.00 0.00 0.00 0.00 0.00 0.00 0.00 0.00 0.00 0.00 0.00 0.01 0.01 0.01 0.02 0.01 0.01 0.00 0.00 0.00 0.01 0.01 0.02 0.02 0.03
0.04 0.04 0.02 0.02 0.02 0.03 0.02 0.03 0.07 0.13 0.13 0.13 0.02 0.05 0.06 0.03 0.03 0.02 0.00 0.00 0.00 0.00 0.00 0.00 0.00 0.00 0.00 0.00 0.00 0.01 0.01 0.02 0.02 0.02 0.01 0.00 0.00 0.01 0.01 0.01 0.01 0.02
0.19 0.32 0.18 0.09 0.03 0.04 0.04 0.05 0.06 0.05 0.04 0.24 0.56 0.52 0.37 0.33 0.33 0.07 0.03 0.01 0.01 0.00 0.00 0.00 0.00 0.00 0.00 0.00 0.00 0.00 0.00 0.01 0.02 0.02 0.01 0.01 0.00 0.00 0.01 0.03 0.03 0.02
0.01 0.06 0.06 0.10 0.06 0.04 0.11 0.14 0.17 0.23 0.44 0.77 0.47 0.28 0.37 0.40 0.10 0.04 0.04 0.04 0.02 0.01 0.00 0.01 0.00 0.00 0.00 0.00 0.00 0.00 0.00 0.00 0.01 0.01 0.01 0.02 0.01 0.01 0.01 0.01 0.02 0.01
0.01 0.01 0.02 0.02 0.02 0.08 0.02 0.30 0.62 0.44 0.38 0.40 0.32 0.28 0.16 0.21 0.07 0.20 0.24 0.10 0.02 0.06 0.02 0.07 0.03 0.01 0.01 0.00 0.00 0.00 0.00 0.01 0.01 0.01 0.01 0.01 0.01 0.01 0.01 0.01 0.02 0.02
0.32 0.27 0.51 0.63 0.22 0.32 0.23 0.29 0.17 0.30 0.35 0.26 0.22 0.21 0.09 0.04 0.19 0.35 0.16 0.12 0.03 0.05 0.01 0.03 0.15 0.05 0.00 0.00 0.00 0.00 0.00 0.01 0.01 0.01 0.01 0.01 0.01 0.01 0.02 0.01 0.01 0.01
0.59 0.53 0.28 0.33 0.11 0.36 0.28 0.42 0.46 0.28 0.17 0.13 0.15 0.06 0.12 0.12 0.09 0.18 0.31 0.43 0.19 0.09 0.15 0.08 0.01 0.04 0.26 0.00 0.00 0.00 0.01 0.02 0.02 0.01 0.01 0.01 0.01 0.00 0.01 0.00 0.01 0.02
0.39 0.42 0.28 0.33 0.26 0.19 0.25 0.17 0.14 0.12 0.11 0.12 0.12 0.23 0.12 0.10 0.20 0.19 0.17 0.23 0.22 0.15 0.16 0.16 0.15 0.02 0.00 0.00 0.00 0.00 0.00 0.01 0.02 0.02 0.02 0.02 0.01 0.00 0.00 0.00 0.00 0.01
0.40 0.31 0.28 0.26 0.14 0.15 0.06 0.53 0.52 0.23 0.23 0.11 0.07 0.09 0.05 0.08 0.05 0.03 0.03 0.03 0.02 0.01 0.02 0.01 0.00 0.00 0.00 0.00 0.00 0.00 0.00 0.01 0.02 0.02 0.05 0.04 0.02 0.01 0.00 0.00 0.00 0.00
0.11 0.20 0.16 0.18 0.31 0.30 0.31 0.24 0.15 0.14 0.12 0.05 0.04 0.06 0.05 0.04 0.04 0.03 0.04 0.08 0.04 0.06 0.02 0.01 0.01 0.01 0.00 0.00 0.00 0.00 0.00 0.01 0.02 0.03 0.03 0.05 0.02 0.01 0.01 0.01 0.00 0.00
0.09 0.05 0.17 0.34 0.48 0.51 0.45 0.19 0.11 0.10 0.12 0.09 0.06 0.11 0.09 0.03 0.07 0.04 0.04 0.04 0.04 0.06 0.04 0.03 0.00 0.00 0.00 0.00 0.00 0.00 0.00 0.01 0.02 0.04 0.04 0.03 0.03 0.02 0.02 0.01 0.02 0.02
0.32 0.24 0.10 0.26 0.23 0.14 0.20 0.21 0.12 0.04 0.22 0.13 0.28 0.13 0.14 0.20 0.25 0.15 0.15 0.17 0.09 0.12 0.08 0.08 0.05 0.02 0.01 0.00 0.00 0.00 0.00 0.02 0.02 0.05 0.05 0.04 0.04 0.05 0.02 0.01 0.02 0.05
0.08 0.25 0.27 0.11 0.08 0.04 0.04 0.01 0.02 0.01 0.02 0.02 0.02 0.01 0.02 0.01 0.02 0.03 0.02 0.03 0.02 0.01 0.03 0.02 0.02 0.01 0.02 0.00 0.00 0.00 0.01 0.01 0.04 0.07 0.05 0.05 0.02 0.02 0.02 0.02 0.04 0.01
0.22 0.11 0.23 0.12 0.11 0.06 0.03 0.04 0.02 0.05 0.04 0.02 0.02 0.02 0.02 0.03 0.05 0.03 0.01 0.02 0.03 0.03 0.02 0.02 0.02 0.03 0.02 0.01 0.00 0.00 0.00 0.03 0.07 0.06 0.06 0.07 0.05 0.03 0.02 0.02 0.03 0.01
0.06 0.17 0.19 0.42 0.36 0.21 0.09 0.08 0.04 0.07 0.06 0.03 0.04 0.05 0.06 0.07 0.07 0.10 0.02 0.06 0.02 0.02 0.02 0.04 0.04 0.03 0.02 0.01 0.01 0.00 0.05 0.05 0.05 0.09 0.10 0.06 0.05 0.05 0.08 0.09 0.03 0.05
0.14 0.14 0.18 0.12 0.22 0.08 0.21 0.38 0.43 0.26 0.21 0.19 0.12 0.12 0.09 0.06 0.05 0.03 0.02 0.01 0.01 0.02 0.03 0.04 0.04 0.04 0.03 0.02 0.01 0.02 0.07 0.06 0.03 0.09 0.08 0.07 0.07 0.05 0.08 0.09 0.07 0.07

ECMWFNIL_prec_precacc_036.txt.gz
Total_Precipitation_Accumulation
0.00 0.00 0.00 0.00 0.00 0.00 0.00 0.00 0.00 0.00 0.00 0.00 0.00 0.00 0.00 0.00 0.00 0.00 0.00 0.00 0.00 0.00 0.00 0.00 0.00 0.00 0.00 0.01 0.01 0.03 0.04 0.01 0.04 0.06 0.08 0.07 0.08 0.21 0.15 0.25 0.39 0.38
0.00 0.00 0.01 0.00 0.00 0.00 0.00 0.00 0.00 0.00 0.00 0.00 0.00 0.00 0.00 0.00 0.00 0.00 0.00 0.00 0.00 0.00 0.00 0.00 0.00 0.00 0.00 0.01 0.01 0.01 0.01 0.07 0.06 0.02 0.06 0.09 0.13 0.11 0.18 0.21 0.22 0.29
0.00 0.00 0.00 0.00 0.00 0.00 0.00 0.00 0.00 0.00 0.00 0.00 0.00 0.00 0.00 0.00 0.01 0.01 0.01 0.01 0.01 0.01 0.01 0.00 0.00 0.00 0.00 0.00 0.01 0.01 0.01 0.01 0.05 0.05 0.09 0.06 0.16 0.11 0.11 0.15 0.15 0.13
0.00 0.00 0.00 0.00 0.00 0.00 0.00 0.00 0.00 0.00 0.00 0.00 0.00 0.00 0.00 0.00 0.00 0.00 0.00 0.01 0.01 0.01 0.00 0.01 0.00 0.00 0.00 0.00 0.00 0.01 0.02 0.01 0.01 0.03 0.10 0.09 0.04 0.06 0.10 0.09 0.11 0.15
0.00 0.00 0.00 0.00 0.00 0.00 0.00 0.00 0.00 0.00 0.00 0.00 0.00 0.00 0.01 0.00 0.00 0.01 0.01 0.01 0.01 0.01 0.00 0.00 0.00 0.00 0.00 0.00 0.01 0.01 0.01 0.01 0.01 0.01 0.02 0.08 0.14 0.06 0.04 0.10 0.13 0.10
0.00 0.01 0.00 0.00 0.00 0.00 0.00 0.00 0.00 0.00 0.00 0.00 0.00 0.00 0.00 0.00 0.01 0.01 0.00 0.01 0.00 0.00 0.01 0.01 0.00 0.00 0.00 0.00 0.00 0.01 0.01 0.01 0.02 0.01 0.01 0.02 0.09 0.16 0.12 0.06 0.11 0.09
0.00 0.02 0.01 0.00 0.00 0.00 0.00 0.01 0.00 0.00 0.01 0.00 0.00 0.00 0.00 0.00 0.00 0.00 0.00 0.00 0.00 0.00 0.00 0.00 0.00 0.00 0.00 0.00 0.01 0.01 0.01 0.01 0.01 0.01 0.01 0.01 0.01 0.07 0.17 0.11 0.08 0.05
0.01 0.00 0.01 0.00 0.00 0.00 0.01 0.00 0.00 0.00 0.00 0.00 0.00 0.00 0.00 0.00 0.00 0.00 0.00 0.00 0.00 0.00 0.00 0.00 0.00 0.00 0.00 0.00 0.00 0.01 0.01 0.01 0.01 0.01 0.00 0.01 0.01 0.02 0.03 0.13 0.11 0.08
0.05 0.05 0.02 0.01 0.02 0.00 0.00 0.01 0.01 0.01 0.01 0.01 0.01 0.00 0.00 0.00 0.00 0.00 0.00 0.00 0.00 0.00 0.00 0.00 0.01 0.01 0.01 0.01 0.01 0.01 0.01 0.01 0.00 0.00 0.01 0.01 0.01 0.01 0.01 0.04 0.12 0.12
0.01 0.02 0.05 0.04 0.03 0.07 0.02 0.01 0.03 0.03 0.01 0.01 0.00 0.01 0.00 0.00 0.01 0.00 0.00 0.00 0.00 0.00 0.00 0.00 0.00 0.00 0.01 0.01 0.01 0.01 0.01 0.01 0.01 0.00 0.00 0.00 0.00 0.01 0.02 0.01 0.02 0.06
0.17 0.11 0.12 0.11 0.19 0.22 0.23 0.16 0.11 0.15 0.24 0.17 0.11 0.04 0.02 0.02 0.00 0.01 0.00 0.00 0.00 0.00 0.00 0.00 0.00 0.00 0.00 0.00 0.01 0.01 0.01 0.02 0.01 0.01 0.00 0.00 0.00 0.01 0.01 0.02 0.02 0.03
0.07 0.05 0.11 0.15 0.09 0.13 0.07 0.05 0.09 0.15 0.17 0.18 0.16 0.15 0.27 0.23 0.13 0.07 0.01 0.00 0.00 0.01 0.01 0.00 0.00 0.00 0.00 0.00 0.00 0.01 0.01 0.02 0.02 0.02 0.01 0.00 0.00 0.01 0.01 0.01 0.01 0.02
0.19 0.33 0.34 0.16 0.04 0.06 0.05 0.06 0.08 0.07 0.07 0.27 0.62 0.58 0.41 0.34 0.34 0.08 0.04 0.08 0.49 0.25 0.02 0.01 0.01 0.00 0.00 0.00 0.00 0.00 0.00 0.01 0.02 0.02 0.01 0.01 0.00 0.00 0.01 0.03 0.03 0.02
0.01 0.06 0.09 0.14 0.09 0.09 0.15 0.15 0.21 0.43 0.63 0.82 0.65 0.32 0.41 0.40 0.12 0.08 0.50 0.58 0.42 0.05 0.02 0.01 0.03 0.01 0.03 0.06 0.01 0.00 0.00 0.00 0.01 0.01 0.01 0.02 0.01 0.01 0.01 0.01 0.02 0.01
0.01 0.01 0.02 0.02 0.02 0.08 0.02 0.30 0.62 0.44 0.38 0.41 0.36 0.33 0.19 0.41 0.25 0.46 0.40 0.15 0.05 0.09 0.04 0.12 0.11 0.23 0.26 0.02 0.01 0.01 0.00 0.01 0.01 0.01 0.01 0.01 0.01 0.01 0.01 0.01 0.02 0.02
0.32 0.27 0.51 0.63 0.22 0.32 0.23 0.29 0.17 0.30 0.35 0.26 0.23 0.22 0.10 0.09 0.32 0.49 0.17 0.17 0.09 0.08 0.08 0.12 0.26 0.35 0.03 0.00 0.00 0.02 0.02 0.01 0.01 0.01 0.01 0.01 0.01 0.01 0.02 0.01 0.01 0.01
0.59 0.53 0.28 0.33 0.11 0.36 0.28 0.42 0.46 0.28 0.17 0.13 0.15 0.06 0.12 0.13 0.10 0.20 0.31 0.46 0.26 0.12 0.18 0.09 0.01 0.05 0.27 0.02 0.01 0.00 0.01 0.03 0.02 0.01 0.01 0.01 0.01 0.00 0.01 0.00 0.01 0.02
0.39 0.42 0.28 0.33 0.26 0.19 0.25 0.17 0.14 0.12 0.11 0.12 0.12 0.23 0.12 0.10 0.21 0.19 0.17 0.23 0.22 0.15 0.16 0.16 0.16 0.02 0.00 0.00 0.00 0.00 0.00 0.03 0.02 0.02 0.02 0.02 0.01 0.00 0.00 0.00 0.00 0.01
0.40 0.31 0.28 0.26 0.14 0.15 0.06 0.53 0.52 0.23 0.23 0.11 0.07 0.09 0.05 0.08 0.05 0.03 0.03 0.03 0.03 0.01 0.02 0.01 0.00 0.00 0.00 0.00 0.00 0.01 0.02 0.01 0.02 0.02 0.05 0.04 0.02 0.01 0.00 0.00 0.00 0.00
0.11 0.20 0.16 0.18 0.31 0.30 0.31 0.24 0.15 0.14 0.12 0.05 0.04 0.06 0.05 0.04 0.04 0.03 0.04 0.08 0.04 0.06 0.04 0.01 0.01 0.01 0.00 0.00 0.00 0.00 0.01 0.01 0.02 0.04 0.03 0.05 0.02 0.01 0.01 0.01 0.00 0.00
0.09 0.05 0.17 0.34 0.48 0.51 0.45 0.19 0.11 0.10 0.12 0.09 0.06 0.11 0.09 0.04 0.07 0.04 0.04 0.04 0.04 0.08 0.04 0.03 0.01 0.00 0.00 0.00 0.00 0.00 0.00 0.01 0.02 0.05 0.04 0.03 0.03 0.02 0.02 0.01 0.02 0.02
0.32 0.24 0.10 0.26 0.23 0.14 0.20 0.21 0.12 0.04 0.22 0.13 0.28 0.13 0.14 0.20 0.25 0.15 0.15 0.17 0.10 0.12 0.08 0.08 0.05 0.02 0.01 0.00 0.00 0.00 0.00 0.02 0.02 0.05 0.05 0.04 0.04 0.05 0.02 0.01 0.02 0.05
0.08 0.25 0.27 0.11 0.08 0.04 0.04 0.01 0.02 0.01 0.02 0.02 0.02 0.01 0.02 0.01 0.03 0.03 0.02 0.04 0.02 0.01 0.03 0.02 0.02 0.01 0.02 0.00 0.00 0.00 0.01 0.02 0.04 0.07 0.05 0.05 0.02 0.02 0.02 0.02 0.04 0.01
0.22 0.11 0.23 0.12 0.11 0.06 0.03 0.04 0.02 0.05 0.04 0.02 0.02 0.02 0.03 0.04 0.05 0.03 0.02 0.02 0.03 0.03 0.02 0.02 0.02 0.03 0.02 0.01 0.00 0.00 0.01 0.04 0.07 0.06 0.06 0.07 0.05 0.03 0.02 0.02 0.03 0.01
0.06 0.17 0.19 0.42 0.36 0.21 0.09 0.08 0.04 0.07 0.06 0.03 0.04 0.05 0.06 0.07 0.07 0.10 0.02 0.06 0.02 0.02 0.02 0.04 0.04 0.03 0.02 0.01 0.01 0.00 0.06 0.07 0.05 0.09 0.10 0.06 0.05 0.05 0.08 0.09 0.03 0.05
0.14 0.14 0.18 0.12 0.22 0.08 0.21 0.38 0.43 0.26 0.21 0.19 0.12 0.12 0.09 0.06 0.05 0.03 0.02 0.01 0.01 0.02 0.03 0.04 0.04 0.04 0.03 0.02 0.01 0.02 0.07 0.06 0.03 0.09 0.08 0.07 0.07 0.05 0.08 0.09 0.07 0.07

ECMWFNIL_prec_precacc_042.txt.gz
Total_Precipitation_Accumulation
0.00 0.00 0.00 0.00 0.00 0.00 0.00 0.00 0.00 0.00 0.00 0.00 0.00 0.00 0.00 0.00 0.00 0.00 0.00 0.00 0.00 0.00 0.00 0.00 0.00 0.00 0.00 0.01 0.01 0.03 0.04 0.01 0.04 0.06 0.08 0.07 0.08 0.21 0.15 0.25 0.39 0.38
0.00 0.00 0.01 0.00 0.00 0.00 0.00 0.00 0.00 0.00 0.00 0.00 0.00 0.00 0.00 0.00 0.00 0.00 0.00 0.00 0.00 0.00 0.00 0.00 0.00 0.00 0.00 0.01 0.01 0.01 0.01 0.07 0.06 0.02 0.06 0.09 0.13 0.11 0.18 0.21 0.22 0.29
0.00 0.00 0.00 0.00 0.00 0.00 0.00 0.00 0.00 0.00 0.00 0.00 0.00 0.00 0.00 0.00 0.01 0.01 0.01 0.01 0.01 0.01 0.01 0.00 0.00 0.00 0.00 0.00 0.01 0.01 0.01 0.01 0.05 0.05 0.09 0.06 0.16 0.11 0.11 0.15 0.15 0.13
0.00 0.00 0.00 0.00 0.00 0.00 0.00 0.00 0.00 0.00 0.00 0.00 0.00 0.00 0.00 0.00 0.00 0.00 0.00 0.01 0.01 0.01 0.00 0.01 0.00 0.00 0.00 0.00 0.00 0.01 0.02 0.01 0.01 0.03 0.10 0.09 0.04 0.06 0.10 0.09 0.11 0.15
0.00 0.00 0.00 0.00 0.00 0.00 0.00 0.00 0.00 0.00 0.00 0.00 0.00 0.00 0.01 0.00 0.00 0.01 0.01 0.01 0.01 0.01 0.00 0.00 0.00 0.00 0.00 0.00 0.01 0.01 0.01 0.01 0.01 0.01 0.02 0.08 0.14 0.06 0.04 0.10 0.13 0.10
0.01 0.01 0.00 0.00 0.00 0.00 0.00 0.00 0.00 0.00 0.00 0.00 0.00 0.00 0.00 0.00 0.01 0.01 0.00 0.01 0.00 0.00 0.01 0.01 0.00 0.00 0.00 0.00 0.00 0.01 0.01 0.01 0.02 0.01 0.01 0.02 0.09 0.16 0.12 0.06 0.11 0.09
0.00 0.02 0.02 0.00 0.00 0.00 0.00 0.01 0.00 0.00 0.01 0.00 0.00 0.00 0.00 0.00 0.00 0.00 0.00 0.00 0.00 0.00 0.00 0.00 0.00 0.00 0.00 0.00 0.01 0.01 0.01 0.01 0.01 0.01 0.01 0.01 0.01 0.07 0.17 0.11 0.08 0.05
0.03 0.01 0.02 0.01 0.00 0.00 0.01 0.00 0.00 0.00 0.00 0.00 0.00 0.00 0.00 0.00 0.00 0.00 0.00 0.00 0.00 0.00 0.00 0.00 0.00 0.00 0.00 0.00 0.00 0.01 0.01 0.01 0.01 0.01 0.00 0.01 0.01 0.02 0.03 0.13 0.11 0.08
0.33 0.33 0.04 0.02 0.02 0.00 0.00 0.01 0.02 0.01 0.01 0.02 0.01 0.01 0.00 0.00 0.00 0.00 0.00 0.00 0.00 0.00 0.00 0.00 0.01 0.01 0.01 0.01 0.01 0.01 0.01 0.01 0.00 0.00 0.01 0.01 0.01 0.01 0.01 0.04 0.12 0.12
0.13 0.10 0.19 0.28 0.24 0.23 0.11 0.09 0.06 0.10 0.13 0.05 0.01 0.01 0.01 0.00 0.01 0.00 0.00 0.00 0.00 0.00 0.00 0.00 0.00 0.00 0.01 0.01 0.01 0.01 0.01 0.01 0.01 0.00 0.00 0.00 0.00 0.01 0.02 0.01 0.02 0.06
0.37 0.28 0.16 0.16 0.26 0.36 0.36 0.26 0.22 0.25 0.30 0.22 0.20 0.14 0.05 0.05 0.04 0.01 0.01 0.00 0.00 0.00 0.00 0.00 0.00 0.00 0.00 0.00 0.01 0.01 0.01 0.02 0.01 0.01 0.00 0.00 0.00 0.01 0.01 0.02 0.02 0.03
0.11 0.13 0.19 0.21 0.14 0.16 0.08 0.05 0.10 0.16 0.24 0.31 0.31 0.31 0.32 0.24 0.13 0.08 0.03 0.01 0.01 0.07 0.01 0.01 0.00 0.00 0.00 0.01 0.00 0.01 0.01 0.02 0.02 0.02 0.01 0.00 0.00 0.01 0.01 0.01 0.01 0.02
0.20 0.34 0.34 0.16 0.05 0.06 0.05 0.06 0.08 0.07 0.08 0.41 0.65 0.59 0.44 0.35 0.34 0.08 0.04 0.10 0.53 0.27 0.04 0.03 0.04 0.04 0.11 0.19 0.02 0.00 0.00 0.01 0.02 0.02 0.01 0.01 0.00 0.00 0.01 0.03 0.03 0.02
0.01 0.06 0.09 0.14 0.09 0.09 0.15 0.16 0.24 0.46 0.63 0.82 0.67 0.35 0.44 0.42 0.13 0.15 0.52 0.60 0.46 0.05 0.03 0.02 0.04 0.03 0.06 0.18 0.07 0.03 0.00 0.01 0.01 0.01 0.01 0.02 0.01 0.01 0.01 0.01 0.02 0.01
0.01 0.01 0.02 0.02 0.02 0.08 0.02 0.30 0.62 0.45 0.39 0.42 0.36 0.33 0.20 0.48 0.50 0.61 0.51 0.18 0.08 0.12 0.06 0.12 0.11 0.37 0.34 0.05 0.20 0.03 0.02 0.02 0.01 0.01 0.01 0.01 0.01 0.01 0.01 0.01 0.02 0.02
0.32 0.27 0.51 0.63 0.22 0.32 0.23 0.29 0.17 0.30 0.35 0.26 0.23 0.22 0.10 0.11 0.39 0.63 0.25 0.17 0.10 0.09 0.08 0.13 0.27 0.36 0.03 0.00 0.00 0.04 0.07 0.01 0.02 0.01 0.01 0.01 0.01 0.01 0.02 0.01 0.01 0.01
0.59 0.53 0.28 0.33 0.11 0.36 0.28 0.42 0.46 0.28 0.17 0.13 0.15 0.06 0.12 0.13 0.11 0.20 0.34 0.46 0.26 0.13 0.20 0.09 0.02 0.05 0.27 0.02 0.01 0.00 0.04 0.07 0.05 0.02 0.01 0.01 0.01 0.00 0.01 0.00 0.01 0.02
0.39 0.42 0.28 0.33 0.26 0.19 0.25 0.17 0.14 0.12 0.11 0.12 0.12 0.23 0.12 0.10 0.21 0.19 0.17 0.23 0.22 0.15 0.16 0.16 0.16 0.02 0.00 0.00 0.00 0.01 0.01 0.06 0.04 0.05 0.06 0.05 0.01 0.01 0.00 0.00 0.00 0.01
0.40 0.31 0.28 0.26 0.14 0.15 0.06 0.53 0.52 0.23 0.23 0.11 0.07 0.09 0.05 0.09 0.05 0.03 0.03 0.03 0.03 0.02 0.03 0.01 0.00 0.00 0.00 0.00 0.00 0.01 0.02 0.03 0.02 0.02 0.17 0.24 0.04 0.05 0.00 0.01 0.00 0.01
0.11 0.20 0.16 0.18 0.31 0.30 0.31 0.24 0.15 0.14 0.12 0.05 0.04 0.06 0.05 0.04 0.04 0.03 0.04 0.08 0.04 0.06 0.04 0.01 0.01 0.01 0.00 0.00 0.00 0.00 0.02 0.02 0.04 0.04 0.04 0.05 0.05 0.09 0.02 0.02 0.01 0.00
0.09 0.05 0.17 0.34 0.48 0.51 0.45 0.19 0.11 0.10 0.12 0.09 0.06 0.11 0.09 0.04 0.07 0.04 0.04 0.05 0.04 0.08 0.04 0.03 0.01 0.00 0.00 0.00 0.00 0.00 0.00 0.01 0.04 0.09 0.07 0.08 0.04 0.03 0.15 0.02 0.04 0.02
0.32 0.24 0.10 0.26 0.23 0.14 0.20 0.21 0.12 0.04 0.22 0.13 0.28 0.13 0.14 0.20 0.25 0.15 0.15 0.17 0.10 0.12 0.08 0.08 0.05 0.02 0.01 0.00 0.00 0.00 0.00 0.02 0.02 0.06 0.06 0.05 0.05 0.18 0.03 0.05 0.02 0.05
0.08 0.25 0.27 0.11 0.08 0.04 0.04 0.01 0.02 0.01 0.02 0.02 0.02 0.01 0.02 0.01 0.03 0.03 0.02 0.04 0.02 0.01 0.03 0.02 0.02 0.01 0.02 0.00 0.00 0.00 0.01 0.02 0.04 0.07 0.06 0.06 0.02 0.02 0.03 0.02 0.04 0.01
0.22 0.11 0.23 0.12 0.11 0.06 0.03 0.04 0.02 0.05 0.04 0.02 0.02 0.02 0.03 0.04 0.05 0.03 0.02 0.02 0.03 0.03 0.02 0.02 0.02 0.03 0.02 0.01 0.00 0.00 0.01 0.04 0.07 0.06 0.06 0.07 0.05 0.03 0.02 0.02 0.03 0.01
0.06 0.17 0.19 0.42 0.36 0.21 0.09 0.08 0.04 0.07 0.06 0.03 0.04 0.05 0.06 0.07 0.07 0.10 0.02 0.06 0.02 0.02 0.02 0.04 0.04 0.03 0.02 0.01 0.01 0.00 0.06 0.07 0.05 0.09 0.10 0.06 0.05 0.05 0.08 0.09 0.03 0.05
0.14 0.14 0.18 0.12 0.22 0.08 0.21 0.38 0.43 0.26 0.21 0.19 0.12 0.12 0.09 0.06 0.05 0.03 0.02 0.01 0.01 0.02 0.03 0.04 0.04 0.04 0.03 0.02 0.01 0.02 0.07 0.06 0.03 0.09 0.08 0.07 0.07 0.05 0.08 0.09 0.07 0.07

ECMWFNIL_prec_precacc_045.txt.gz
Total_Precipitation_Accumulation
0.00 0.00 0.00 0.00 0.00 0.00 0.00 0.00 0.00 0.00 0.00 0.00 0.00 0.00 0.00 0.00 0.00 0.00 0.00 0.00 0.00 0.00 0.00 0.00 0.00 0.00 0.00 0.01 0.01 0.03 0.04 0.01 0.04 0.06 0.08 0.07 0.08 0.21 0.15 0.25 0.39 0.38
0.00 0.00 0.01 0.00 0.00 0.00 0.00 0.00 0.00 0.00 0.00 0.00 0.00 0.00 0.00 0.00 0.00 0.00 0.00 0.00 0.00 0.00 0.00 0.00 0.00 0.00 0.00 0.01 0.01 0.01 0.01 0.07 0.06 0.02 0.06 0.09 0.13 0.11 0.18 0.21 0.22 0.29
0.00 0.00 0.00 0.00 0.00 0.00 0.00 0.00 0.00 0.00 0.00 0.00 0.00 0.00 0.00 0.00 0.01 0.01 0.01 0.01 0.01 0.01 0.01 0.00 0.00 0.00 0.00 0.00 0.01 0.01 0.01 0.01 0.05 0.05 0.09 0.06 0.16 0.11 0.11 0.15 0.15 0.13
0.00 0.00 0.00 0.00 0.00 0.00 0.00 0.00 0.00 0.00 0.00 0.00 0.00 0.00 0.00 0.00 0.00 0.00 0.00 0.01 0.01 0.01 0.00 0.01 0.00 0.00 0.00 0.00 0.00 0.01 0.02 0.01 0.01 0.03 0.10 0.09 0.04 0.06 0.10 0.09 0.11 0.15
0.00 0.00 0.00 0.00 0.00 0.00 0.00 0.00 0.00 0.00 0.00 0.00 0.00 0.00 0.01 0.00 0.00 0.01 0.01 0.01 0.01 0.01 0.00 0.00 0.00 0.00 0.00 0.00 0.01 0.01 0.01 0.01 0.01 0.01 0.02 0.08 0.14 0.06 0.04 0.10 0.13 0.10
0.01 0.01 0.00 0.00 0.00 0.00 0.00 0.00 0.00 0.00 0.00 0.00 0.00 0.00 0.00 0.00 0.01 0.01 0.00 0.01 0.00 0.00 0.01 0.01 0.00 0.00 0.00 0.00 0.00 0.01 0.01 0.01 0.02 0.01 0.01 0.02 0.09 0.16 0.12 0.06 0.11 0.09
0.00 0.02 0.02 0.00 0.00 0.00 0.00 0.01 0.00 0.00 0.01 0.00 0.00 0.00 0.00 0.00 0.00 0.00 0.00 0.00 0.00 0.00 0.00 0.00 0.00 0.00 0.00 0.00 0.01 0.01 0.01 0.01 0.01 0.01 0.01 0.01 0.01 0.07 0.17 0.11 0.08 0.05
0.03 0.01 0.02 0.02 0.00 0.00 0.01 0.00 0.00 0.00 0.00 0.00 0.00 0.00 0.00 0.00 0.00 0.00 0.00 0.00 0.00 0.00 0.00 0.00 0.00 0.00 0.00 0.00 0.00 0.01 0.01 0.01 0.01 0.01 0.00 0.01 0.01 0.02 0.03 0.13 0.11 0.08
0.35 0.39 0.09 0.03 0.02 0.01 0.01 0.01 0.02 0.01 0.01 0.02 0.01 0.01 0.00 0.00 0.00 0.00 0.00 0.00 0.00 0.00 0.00 0.00 0.01 0.01 0.01 0.01 0.01 0.01 0.01 0.01 0.00 0.00 0.01 0.01 0.01 0.01 0.01 0.04 0.12 0.12
0.15 0.12 0.20 0.29 0.25 0.24 0.12 0.10 0.06 0.11 0.14 0.05 0.01 0.01 0.01 0.00 0.01 0.00 0.00 0.00 0.00 0.00 0.01 0.00 0.00 0.00 0.01 0.01 0.01 0.01 0.01 0.01 0.01 0.00 0.00 0.00 0.00 0.01 0.02 0.01 0.02 0.06
0.37 0.28 0.16 0.16 0.26 0.36 0.37 0.28 0.23 0.28 0.38 0.31 0.27 0.23 0.14 0.13 0.08 0.03 0.01 0.01 0.01 0.01 0.00 0.00 0.00 0.00 0.00 0.00 0.01 0.01 0.01 0.02 0.01 0.01 0.00 0.00 0.00 0.01 0.01 0.02 0.02 0.03
0.15 0.16 0.29 0.38 0.27 0.25 0.17 0.09 0.12 0.19 0.24 0.33 0.36 0.40 0.46 0.35 0.24 0.20 0.06 0.03 0.02 0.07 0.01 0.03 0.01 0.00 0.00 0.01 0.00 0.01 0.01 0.02 0.02 0.02 0.01 0.00 0.00 0.01 0.01 0.01 0.01 0.02
0.22 0.44 0.35 0.16 0.10 0.09 0.05 0.12 0.09 0.08 0.08 0.45 0.65 0.60 0.46 0.45 0.47 0.16 0.17 0.29 0.57 0.35 0.12 0.11 0.08 0.06 0.11 0.19 0.02 0.00 0.00 0.01 0.02 0.02 0.01 0.01 0.00 0.00 0.01 0.03 0.03 0.02
0.24 0.35 0.18 0.39 0.29 0.26 0.23 0.21 0.35 0.57 0.73 0.94 0.84 0.49 0.49 0.46 0.15 0.16 0.54 0.63 0.55 0.20 0.07 0.05 0.06 0.05 0.06 0.20 0.08 0.03 0.01 0.01 0.01 0.01 0.01 0.02 0.01 0.01 0.01 0.01 0.02 0.01
0.12 0.24 0.41 0.19 0.23 0.25 0.20 0.44 0.76 0.61 0.46 0.48 0.40 0.33 0.20 0.50 0.57 0.72 0.64 0.21 0.08 0.13 0.11 0.18 0.11 0.37 0.34 0.06 0.22 0.04 0.02 0.03 0.01 0.01 0.01 0.01 0.01 0.01 0.01 0.01 0.02 0.02
0.33 0.29 0.54 0.65 0.22 0.33 0.24 0.42 0.35 0.45 0.55 0.35 0.30 0.27 0.13 0.13 0.47 0.86 0.37 0.18 0.13 0.17 0.18 0.14 0.27 0.36 0.03 0.00 0.00 0.04 0.08 0.01 0.02 0.01 0.01 0.01 0.01 0.01 0.02 0.01 0.01 0.01
0.59 0.53 0.28 0.34 0.11 0.36 0.28 0.42 0.46 0.28 0.17 0.13 0.15 0.06 0.20 0.24 0.28 0.40 0.46 0.58 0.32 0.15 0.24 0.11 0.02 0.05 0.27 0.02 0.04 0.01 0.04 0.07 0.05 0.02 0.01 0.01 0.01 0.00 0.01 0.00 0.01 0.02
0.39 0.42 0.28 0.33 0.26 0.19 0.25 0.17 0.14 0.12 0.11 0.12 0.12 0.23 0.12 0.10 0.21 0.19 0.17 0.23 0.22 0.15 0.16 0.16 0.16 0.02 0.00 0.08 0.21 0.02 0.14 0.28 0.11 0.17 0.06 0.06 0.01 0.01 0.00 0.00 0.01 0.01
0.40 0.31 0.28 0.26 0.14 0.15 0.06 0.53 0.52 0.23 0.23 0.11 0.07 0.09 0.05 0.09 0.05 0.03 0.03 0.03 0.03 0.02 0.03 0.01 0.00 0.00 0.00 0.00 0.00 0.01 0.02 0.03 0.08 0.19 0.19 0.30 0.04 0.06 0.01 0.05 0.01 0.01
0.11 0.20 0.16 0.18 0.31 0.30 0.31 0.24 0.15 0.14 0.12 0.05 0.04 0.06 0.05 0.04 0.04 0.03 0.04 0.08 0.04 0.06 0.04 0.01 0.01 0.01 0.00 0.00 0.00 0.00 0.02 0.02 0.04 0.04 0.04 0.05 0.05 0.13 0.04 0.02 0.01 0.00
0.09 0.05 0.17 0.34 0.48 0.51 0.45 0.19 0.11 0.10 0.12 0.09 0.06 0.11 0.09 0.04 0.07 0.04 0.04 0.05 0.04 0.08 0.04 0.03 0.01 0.00 0.00 0.00 0.00 0.00 0.00 0.01 0.04 0.09 0.07 0.08 0.04 0.03 0.15 0.02 0.04 0.02
0.32 0.24 0.10 0.26 0.23 0.14 0.20 0.21 0.12 0.04 0.22 0.13 0.28 0.13 0.14 0.20 0.25 0.15 0.15 0.17 0.10 0.12 0.08 0.08 0.05 0.02 0.01 0.00 0.00 0.00 0.00 0.02 0.02 0.06 0.06 0.05 0.05 0.18 0.03 0.05 0.02 0.05
0.08 0.25 0.27 0.11 0.08 0.04 0.04 0.01 0.02 0.01 0.02 0.02 0.02 0.01 0.02 0.01 0.03 0.03 0.02 0.04 0.02 0.01 0.03 0.02 0.02 0.01 0.02 0.00 0.00 0.00 0.01 0.02 0.04 0.07 0.06 0.06 0.02 0.02 0.03 0.02 0.04 0.01
0.22 0.11 0.23 0.12 0.11 0.06 0.03 0.04 0.02 0.05 0.04 0.02 0.02 0.02 0.03 0.04 0.05 0.03 0.02 0.02 0.03 0.03 0.02 0.02 0.02 0.03 0.02 0.01 0.00 0.00 0.01 0.04 0.07 0.06 0.06 0.07 0.05 0.03 0.02 0.02 0.03 0.01
0.06 0.17 0.19 0.42 0.36 0.21 0.09 0.08 0.04 0.07 0.06 0.03 0.04 0.05 0.06 0.07 0.07 0.10 0.02 0.06 0.02 0.02 0.02 0.04 0.04 0.03 0.02 0.01 0.01 0.00 0.06 0.07 0.05 0.09 0.10 0.06 0.05 0.05 0.08 0.09 0.03 0.05
0.14 0.14 0.18 0.12 0.22 0.08 0.21 0.38 0.43 0.26 0.21 0.19 0.12 0.12 0.09 0.06 0.05 0.03 0.02 0.01 0.01 0.02 0.03 0.04 0.04 0.04 0.03 0.02 0.01 0.02 0.07 0.06 0.03 0.09 0.08 0.07 0.07 0.05 0.08 0.09 0.07 0.07

ECMWFNIL_prec_precacc_048.txt.gz
Total_Precipitation_Accumulation
0.00 0.00 0.00 0.00 0.00 0.00 0.00 0.00 0.00 0.00 0.00 0.00 0.00 0.00 0.00 0.00 0.00 0.00 0.00 0.00 0.00 0.00 0.00 0.00 0.00 0.00 0.00 0.01 0.01 0.03 0.04 0.01 0.04 0.06 0.08 0.07 0.08 0.21 0.15 0.25 0.39 0.38
0.00 0.00 0.01 0.00 0.00 0.00 0.00 0.00 0.00 0.00 0.00 0.00 0.00 0.00 0.00 0.00 0.00 0.00 0.00 0.00 0.00 0.00 0.00 0.00 0.00 0.00 0.00 0.01 0.01 0.01 0.01 0.07 0.06 0.02 0.06 0.09 0.13 0.11 0.18 0.21 0.22 0.29
0.00 0.00 0.00 0.00 0.00 0.00 0.00 0.00 0.00 0.00 0.00 0.00 0.00 0.00 0.00 0.00 0.01 0.01 0.01 0.01 0.01 0.01 0.01 0.00 0.00 0.00 0.00 0.00 0.01 0.01 0.01 0.01 0.05 0.05 0.09 0.06 0.16 0.11 0.11 0.15 0.15 0.13
0.00 0.00 0.00 0.00 0.00 0.00 0.00 0.00 0.00 0.00 0.00 0.00 0.00 0.00 0.00 0.00 0.00 0.00 0.00 0.01 0.01 0.01 0.00 0.01 0.00 0.00 0.00 0.00 0.00 0.01 0.02 0.01 0.01 0.03 0.10 0.09 0.04 0.06 0.10 0.09 0.11 0.15
0.00 0.00 0.00 0.00 0.00 0.00 0.00 0.00 0.00 0.00 0.00 0.00 0.00 0.00 0.01 0.00 0.00 0.01 0.01 0.01 0.01 0.01 0.00 0.00 0.00 0.00 0.00 0.00 0.01 0.01 0.01 0.01 0.01 0.01 0.02 0.08 0.14 0.06 0.04 0.10 0.13 0.10
0.01 0.01 0.00 0.00 0.00 0.00 0.00 0.00 0.00 0.00 0.00 0.00 0.00 0.00 0.00 0.00 0.01 0.01 0.00 0.01 0.00 0.00 0.01 0.01 0.00 0.00 0.00 0.00 0.00 0.01 0.01 0.01 0.02 0.01 0.01 0.02 0.09 0.16 0.12 0.06 0.11 0.09
0.00 0.02 0.02 0.00 0.00 0.00 0.00 0.01 0.00 0.00 0.01 0.00 0.00 0.00 0.00 0.00 0.00 0.00 0.00 0.00 0.00 0.00 0.00 0.00 0.00 0.00 0.00 0.00 0.01 0.01 0.01 0.01 0.01 0.01 0.01 0.01 0.01 0.07 0.17 0.11 0.08 0.05
0.03 0.03 0.04 0.12 0.01 0.00 0.01 0.00 0.00 0.00 0.00 0.00 0.00 0.00 0.00 0.00 0.00 0.00 0.00 0.00 0.00 0.00 0.00 0.00 0.00 0.00 0.00 0.00 0.00 0.01 0.01 0.01 0.01 0.01 0.00 0.01 0.01 0.02 0.03 0.13 0.11 0.08
0.35 0.39 0.09 0.05 0.02 0.01 0.01 0.01 0.02 0.01 0.02 0.02 0.01 0.01 0.00 0.00 0.00 0.00 0.00 0.00 0.00 0.00 0.00 0.00 0.01 0.01 0.01 0.01 0.01 0.01 0.01 0.01 0.00 0.00 0.01 0.01 0.01 0.01 0.01 0.04 0.12 0.12
0.15 0.12 0.20 0.29 0.25 0.24 0.12 0.10 0.07 0.12 0.14 0.05 0.01 0.01 0.01 0.04 0.01 0.01 0.00 0.00 0.00 0.00 0.01 0.00 0.00 0.00 0.01 0.01 0.01 0.01 0.01 0.01 0.01 0.00 0.00 0.00 0.00 0.01 0.02 0.01 0.02 0.06
0.37 0.28 0.16 0.16 0.26 0.37 0.40 0.28 0.23 0.28 0.40 0.34 0.31 0.25 0.15 0.13 0.09 0.04 0.02 0.02 0.01 0.01 0.01 0.01 0.00 0.00 0.00 0.01 0.01 0.02 0.02 0.02 0.01 0.02 0.01 0.00 0.01 0.01 0.01 0.02 0.02 0.03
0.15 0.16 0.29 0.38 0.27 0.25 0.17 0.09 0.12 0.19 0.24 0.33 0.36 0.40 0.46 0.35 0.24 0.21 0.07 0.05 0.04 0.09 0.03 0.05 0.07 0.05 0.01 0.04 0.06 0.05 0.05 0.06 0.08 0.02 0.02 0.01 0.02 0.01 0.01 0.01 0.01 0.02
0.23 0.45 0.35 0.16 0.10 0.09 0.05 0.12 0.09 0.08 0.08 0.45 0.65 0.60 0.46 0.45 0.47 0.16 0.17 0.29 0.58 0.38 0.13 0.13 0.12 0.10 0.17 0.28 0.10 0.09 0.03 0.13 0.14 0.10 0.09 0.06 0.00 0.01 0.02 0.04 0.07 0.04
0.24 0.36 0.19 0.42 0.30 0.38 0.24 0.21 0.35 0.57 0.73 0.94 0.84 0.49 0.49 0.46 0.15 0.16 0.54 0.63 0.55 0.20 0.10 0.05 0.09 0.08 0.13 0.31 0.21 0.19 0.14 0.14 0.23 0.36 0.30 0.03 0.04 0.02 0.09 0.03 0.02 0.03
0.12 0.24 0.41 0.19 0.42 0.40 0.25 0.44 0.84 0.64 0.46 0.48 0.40 0.33 0.20 0.51 0.58 0.73 0.64 0.21 0.08 0.13 0.11 0.18 0.11 0.37 0.35 0.07 0.42 0.07 0.05 0.04 0.02 0.01 0.01 0.01 0.01 0.01 0.01 0.03 0.02 0.02
0.33 0.29 0.54 0.65 0.23 0.34 0.25 0.42 0.35 0.49 0.59 0.37 0.42 0.29 0.14 0.13 0.47 0.86 0.37 0.18 0.13 0.17 0.18 0.16 0.29 0.37 0.05 0.03 0.03 0.05 0.17 0.09 0.03 0.01 0.03 0.01 0.01 0.01 0.02 0.01 0.01 0.01
0.59 0.53 0.28 0.34 0.11 0.36 0.28 0.42 0.46 0.28 0.22 0.17 0.18 0.12 0.20 0.24 0.28 0.40 0.46 0.58 0.32 0.16 0.28 0.24 0.23 0.21 0.36 0.28 0.07 0.01 0.06 0.07 0.05 0.02 0.01 0.01 0.01 0.00 0.01 0.00 0.01 0.02
0.39 0.42 0.28 0.33 0.26 0.19 0.25 0.17 0.14 0.12 0.11 0.12 0.12 0.23 0.12 0.10 0.21 0.19 0.17 0.23 0.22 0.17 0.18 0.18 0.16 0.03 0.00 0.08 0.21 0.02 0.14 0.28 0.13 0.17 0.06 0.06 0.02 0.01 0.02 0.02 0.02 0.10
0.40 0.31 0.28 0.26 0.14 0.15 0.06 0.53 0.52 0.23 0.23 0.11 0.07 0.09 0.05 0.09 0.05 0.03 0.03 0.03 0.03 0.02 0.03 0.01 0.00 0.00 0.00 0.00 0.00 0.01 0.02 0.04 0.08 0.19 0.19 0.30 0.04 0.06 0.01 0.05 0.01 0.01
0.11 0.20 0.16 0.18 0.31 0.30 0.31 0.24 0.15 0.14 0.12 0.05 0.04 0.06 0.05 0.04 0.04 0.03 0.04 0.08 0.04 0.06 0.04 0.01 0.01 0.01 0.00 0.00 0.00 0.00 0.02 0.02 0.04 0.04 0.04 0.05 0.05 0.13 0.04 0.02 0.01 0.00
0.09 0.05 0.17 0.34 0.48 0.51 0.45 0.19 0.11 0.10 0.12 0.09 0.06 0.11 0.09 0.04 0.07 0.04 0.04 0.05 0.04 0.08 0.04 0.03 0.01 0.00 0.00 0.00 0.00 0.00 0.00 0.01 0.04 0.09 0.07 0.08 0.04 0.03 0.15 0.02 0.04 0.02
0.32 0.24 0.10 0.26 0.23 0.14 0.20 0.21 0.12 0.04 0.22 0.13 0.28 0.13 0.14 0.20 0.25 0.15 0.15 0.17 0.10 0.12 0.08 0.08 0.05 0.02 0.01 0.00 0.00 0.00 0.00 0.02 0.02 0.06 0.06 0.05 0.05 0.18 0.03 0.05 0.02 0.05
0.08 0.25 0.27 0.11 0.08 0.04 0.04 0.01 0.02 0.01 0.02 0.02 0.02 0.01 0.02 0.01 0.03 0.03 0.02 0.04 0.02 0.01 0.03 0.02 0.02 0.01 0.02 0.00 0.00 0.00 0.01 0.02 0.04 0.07 0.06 0.06 0.02 0.02 0.03 0.02 0.04 0.01
0.22 0.11 0.23 0.12 0.11 0.06 0.03 0.04 0.02 0.05 0.04 0.02 0.02 0.02 0.03 0.04 0.05 0.03 0.02 0.02 0.03 0.03 0.02 0.02 0.02 0.03 0.02 0.01 0.00 0.00 0.01 0.04 0.07 0.06 0.06 0.07 0.05 0.03 0.02 0.02 0.03 0.01
0.06 0.17 0.19 0.42 0.36 0.21 0.09 0.08 0.04 0.07 0.06 0.03 0.04 0.05 0.06 0.07 0.07 0.10 0.02 0.06 0.02 0.02 0.02 0.04 0.04 0.03 0.02 0.01 0.01 0.00 0.06 0.07 0.05 0.09 0.10 0.06 0.05 0.05 0.08 0.09 0.03 0.05
0.16 0.14 0.19 0.12 0.22 0.08 0.21 0.38 0.43 0.26 0.21 0.19 0.12 0.12 0.09 0.06 0.05 0.03 0.02 0.01 0.01 0.02 0.03 0.04 0.04 0.04 0.03 0.02 0.01 0.02 0.07 0.06 0.03 0.09 0.08 0.07 0.07 0.05 0.08 0.09 0.07 0.07